QZS-2 (MICHIBIKI-2)

Last updated on July 29, 2020, 7:02 a.m. UTC

1 42738U 17028A   20210.48248839 -.00000163  00000-0  00000-0 0  9994
2 42738  42.9226 273.8549 0754799 269.5541  78.1501  1.00276681 11580
UTC
Height (km)
Latitude
Longitude
Inclination
Orbital Period
UTC large
Height (km)
Speed (km/s)
/
Latitude / Longitude
Inclination (degrees)
Orbital Period (minutes)
Azimuth
Elevation
Range (km)
Doppler Factor
iOS Compass Heading
iOS Angle

Next 30 passes for location: Hong Kong

Rise time Rise Azimuth (degrees) Set time Set Azimuth (degrees) Duration Max altitude (degrees)

No matching passes for this satellites